[[{"header":{"parameterUnit":"m.s-1","parameterCategory":1,"la1":30.2991,"la2":30.254,"lo1":-89.0895,"lo2":-89.0444,"dy":0.0017,"dx":0.0017,"nx":28,"ny":28,"refTime":"2023-10-25T09:00:00:Z","depth":0,"parameterNumber":2,"parameterNumberName":"U-component_of_WINDS"},"data":[0,0,0,0,0,0,0,0,0,0,0,0,0,0,0,0,0,0,0,0,0,0,0,0,0,0,0,0,0,0,0,0,0,0,0,0,0,0,0,0,0,0,0,0,0,0,0,0,0,0,0,0,0,0,0,0,0,0,-7.9828,-7.9829,0,-7.9899,-7.99,-7.9901,-7.983,-7.9828,-7.9825,-7.9822,-7.9887,-7.9891,-7.9896,0,0,0,0,0,0,0,0,0,0,0,0,0,-7.9625,-7.9629,-7.9828,-7.9829,-7.983,-7.9899,-7.99,-7.9901,-7.9831,-7.9827,-7.9824,-7.9821,-7.9886,-7.9891,-7.9896,0,0,0,0,0,0,0,0,0,0,0,0,0,-7.9707,-7.9631,-7.9828,-7.9803,-7.9802,-7.9899,-7.99,-7.9901,-7.9832,-7.9827,-7.9823,-7.9819,-7.9884,-7.989,-7.9897,-8.0019,0,0,-7.9916,-7.9919,0,0,0,0,0,0,0,0,-7.9702,-7.9714,-7.9806,-7.9805,-7.9804,-7.9852,-7.9853,-7.9941,-7.9833,-7.982,-7.9822,-7.9817,-7.9878,-7.9885,-7.9907,-8.0022,-8.0025,-7.9917,-7.9921,-7.9924,-7.9926,0,0,0,0,0,0,0,-7.9696,-7.971,-7.9856,-7.9807,-7.9806,-7.9787,-7.9794,-7.9869,-7.9871,-7.9821,-7.9816,-7.9826,-7.9877,-7.9901,-7.9908,-8.0026,-7.9917,-7.9923,-7.9927,-7.9929,-8.0247,-8.0252,0,0,0,0,0,0,-7.9694,-7.9706,-7.9854,-7.9858,-7.9742,-7.9794,-7.9802,-7.984,-7.987,-7.9871,-7.9829,-7.9822,-7.9892,-7.9901,-7.991,-8.0055,-7.9924,-7.993,-7.9933,-8.0243,-8.0248,-8.0253,0,0,0,0,0,0,-7.969,-7.9708,-7.9851,-7.9781,-7.9798,-7.9802,-7.9846,-7.9844,-7.9868,-7.9877,-7.9876,-7.9854,-7.9889,-7.9901,-7.9994,-8.0057,-7.9933,-7.9939,-8.0237,-8.0245,-8.0251,-8.0347,0,0,0,0,0,0,-7.9685,-7.9707,-7.9754,-7.9783,-7.9802,-7.9934,-7.985,-7.9848,-7.9881,-7.9872,-7.99,-7.99,-7.9887,-7.9985,-8.0,-8.0063,-7.9944,-8.0232,-8.0241,-8.0249,-8.0338,-8.0356,-8.0372,0,0,0,0,0,-7.9678,-7.9776,-7.9757,-7.9775,-7.9861,-7.9938,-7.9949,-7.9934,-7.9886,-7.9933,-7.9939,-7.9899,-8.0049,-7.9995,-8.0012,-8.0078,-8.0227,-8.0238,-8.0248,-8.033,-8.0353,-8.0372,0,0,0,0,0,0,-7.975,-7.9779,-7.9758,-7.9869,-7.9903,-7.9926,-7.9984,-7.9958,-8.0002,-7.9992,-7.997,-7.9976,-8.0075,-8.0086,-8.0025,-8.0199,-8.013,-8.0144,-8.0187,-8.0208,-8.0225,-8.0217,-7.9949,0,0,0,0,0,-7.9781,-7.9843,-7.9864,-7.996,-7.9978,-7.9979,-8.0012,-7.9999,-8.003,-8.0043,-8.0055,-8.0086,-8.014,-8.0175,-8.0225,-8.0342,-8.0346,-8.0396,-8.0413,-8.0427,-8.0437,-8.05,-8.0522,-8.0287,-8.0287,-8.0287,0,0,-7.984,-7.9864,-7.9904,-7.9975,-7.9999,-8.0062,-7.9991,-8.006,-8.0106,-8.0052,-8.014,-8.0152,-8.0185,-8.0291,-8.0337,-8.0303,-8.0505,-8.044,-8.0451,-8.0454,-8.0513,-8.0535,-8.0555,-8.0294,-8.0293,-8.0292,0,0,-7.9982,-8.0008,-8.009,-8.0118,-8.0157,-8.0158,-8.0179,-8.0209,-8.0215,-8.0305,-8.0266,-8.0321,-8.0414,-8.0439,-8.0464,-8.0624,-8.0588,-8.0641,-8.0726,-8.0788,-8.0806,-8.0822,-8.0877,-8.0897,-8.0653,-8.0653,-8.0653,0,-8.005,-8.0146,-8.0136,-8.0209,-8.0241,-8.0202,-8.0285,-8.0311,-8.0363,-8.0386,-8.0348,-8.0467,-8.0486,-8.0597,-8.0636,-8.0659,-8.068,-8.0634,-8.0805,-8.0821,-8.0836,-8.0888,-8.0909,-8.0659,-8.0658,-8.0658,-8.0657,0,-8.0228,-8.0296,-8.0358,-8.0414,-8.0454,-8.0532,-8.0532,-8.0574,-8.0559,-8.0564,-8.0657,-8.068,-8.0735,-8.0761,-8.0746,-8.0871,-8.0848,-8.0809,-8.0738,-8.0865,-8.0913,-8.0933,-8.0667,-8.0665,-8.0663,-8.0662,0,0,-8.0409,-8.0464,-8.0487,-8.0513,-8.0557,-8.0607,-8.0685,-8.0742,-8.0778,-8.0818,-8.088,-8.0964,-8.0929,-8.0957,-8.0945,-8.1,-8.1123,-8.0953,-8.0954,-8.0982,-8.1261,-8.1287,-8.131,-8.1103,-8.1107,-8.111,-8.1257,0,-8.055,-8.0686,-8.0682,-8.0808,-8.087,-8.0837,-8.0904,-8.0938,-8.0947,-8.0999,-8.1008,-8.1067,-8.1017,-8.1035,-8.1088,-8.1097,-8.1178,-8.1087,-8.1158,-8.116,-8.1146,-8.1336,-8.1363,-8.1501,-8.1276,-8.128,-8.1282,0,-8.073,-8.078,-8.0914,-8.0952,-8.0978,-8.1039,-8.1092,-8.1145,-8.1183,-8.1185,-8.1222,-8.1202,-8.1279,-8.1212,-8.1318,-8.1256,-8.1286,-8.1295,-8.13,-8.1302,-8.1225,-8.1339,-8.1544,-8.1563,-8.1312,-8.1309,-8.1307,0,-8.0845,-8.0947,-8.104,-8.1064,-8.1111,-8.1155,-8.1176,-8.1211,-8.1247,-8.1294,-8.1317,-8.1372,-8.1401,-8.1443,-8.1439,-8.1391,-8.1546,-8.1478,-8.1548,-8.1548,-8.1576,-8.1573,-8.1785,-8.1604,-8.1604,-8.1603,-8.1603,0,-8.1,-8.1082,-8.1093,-8.115,-8.1242,-8.1238,-8.1328,-8.1344,-8.1377,-8.1435,-8.1411,-8.1466,-8.1459,-8.1515,-8.1512,-8.1599,-8.1613,-8.1616,-8.1613,-8.1615,-8.1614,-8.163,-8.1618,-8.1609,-8.1607,-8.1606,-8.1605,0,-8.114,-8.1152,-8.1251,-8.1291,-8.1303,-8.1369,-8.1401,-8.1455,-8.1465,-8.154,-8.1557,-8.1571,-8.1635,-8.1638,-8.171,-8.1709,-8.1814,-8.1803,-8.1802,-8.1798,-8.1866,-8.1858,-8.2091,-8.212,-8.1924,-8.1926,-8.1928,0,-8.1235,-8.1298,-8.1347,-8.1387,-8.1412,-8.1476,-8.1514,-8.1514,-8.1554,-8.1607,-8.1653,-8.1717,-8.1766,-8.1871,-8.1886,-8.1942,-8.1929,-8.2008,-8.1937,-8.1938,-8.1927,-8.1921,-8.1927,-8.2019,-8.2021,-8.2023,-8.2025,0,-8.1402,-8.1406,-8.1464,-8.1526,-8.1574,-8.1621,-8.1665,-8.1698,-8.1703,-8.175,-8.1818,-8.1858,-8.1936,-8.1997,-8.2054,-8.2073,-8.2049,-8.2049,-8.2067,-8.2066,-8.2062,-8.2062,-8.1834,-8.2041,-8.2039,-8.2038,-8.2037,-8.2037,-8.152,-8.1575,-8.162,-8.1686,-8.1721,-8.1764,-8.1817,-8.1837,-8.1894,-8.1959,-8.1957,-8.2031,-8.2071,-8.2144,-8.217,-8.2227,-8.22,-8.2227,-8.2233,-8.2238,-8.2244,-8.2058,-8.2238,-8.2237,-8.2237,-8.2236,-8.2236,0,-8.1682,-8.1711,-8.1773,-8.1838,-8.1891,-8.1871,-8.192,-8.1964,-8.2031,-8.2072,-8.2124,-8.2203,-8.2265,-8.2289,-8.2349,-8.239,-8.2381,-8.2405,-8.2399,-8.2404,-8.2267,-8.2243,-8.2412,-8.2412,-8.2412,-8.2412,-8.2412,-8.2412,-8.1772,-8.1865,-8.1876,-8.1986,-8.2014,-8.209,-8.212,-8.216,-8.2193,-8.2283,-8.2336,-8.2353,-8.2387,-8.2451,-8.2507,-8.2512,-8.2533,-8.2562,-8.2562,-8.2432,-8.2414,-8.2397,-8.2374,-8.2568,-8.2568,-8.2694,-8.2696,-8.2696]},{"header":{"parameterUnit":"m.s-1","parameterCategory":1,"la1":30.2991,"la2":30.254,"lo1":-89.0895,"lo2":-89.0444,"dy":0.0017,"dx":0.0017,"nx":28,"ny":28,"refTime":"2023-10-25T09:00:00:Z","depth":0,"parameterNumber":3,"parameterNumberName":"V-component_of_WINDS"},"data":[0,0,0,0,0,0,0,0,0,0,0,0,0,0,0,0,0,0,0,0,0,0,0,0,0,0,0,0,0,0,0,0,0,0,0,0,0,0,0,0,0,0,0,0,0,0,0,0,0,0,0,0,0,0,0,0,0,0,2.9719,2.9721,0,2.9868,2.987,2.9871,2.9959,2.9959,2.996,2.996,3.0106,3.0109,3.0112,0,0,0,0,0,0,0,0,0,0,0,0,0,2.9509,2.9512,2.9719,2.9721,2.9723,2.9868,2.987,2.9872,2.9959,2.9959,2.996,2.996,3.0104,3.0109,3.0113,0,0,0,0,0,0,0,0,0,0,0,0,0,2.9623,2.9513,2.9719,2.9784,2.9792,2.9867,2.987,2.9872,2.9959,2.9959,2.996,2.9961,3.0103,3.0108,3.0113,3.0134,0,0,3.0129,3.0132,0,0,0,0,0,0,0,0,2.9616,2.963,2.9773,2.978,2.9788,2.9896,2.9849,2.996,2.9959,2.9895,2.996,2.9961,3.0035,3.0046,3.0072,3.0141,3.0147,3.013,3.0133,3.0135,3.0137,0,0,0,0,0,0,0,2.9608,2.9624,2.9778,2.9775,2.9784,2.9805,2.9822,2.987,2.9959,2.9901,2.9907,2.9924,3.0039,3.0067,3.0076,3.0149,3.013,3.0134,3.0138,3.014,3.0246,3.0246,0,0,0,0,0,0,2.959,2.9617,2.9773,2.9782,2.9702,2.9808,2.9827,2.986,2.9959,2.9975,2.9924,2.9928,3.0058,3.007,3.0082,3.0115,3.0135,3.014,3.0143,3.0247,3.0246,3.0246,0,0,0,0,0,0,2.9586,2.9603,2.9767,2.9702,2.9724,2.9812,2.9848,2.9863,2.9891,2.9977,2.9993,2.9936,3.0059,3.0074,3.0122,3.0121,3.0143,3.0147,3.0247,3.0246,3.0246,3.018,0,0,0,0,0,0,2.9579,2.9601,2.961,2.9701,2.9728,2.9805,2.9848,2.9866,2.9901,2.9907,2.9992,3.0007,3.006,3.0113,3.0127,3.0129,3.0151,3.0247,3.0247,3.0246,3.0183,3.0178,3.0173,0,0,0,0,0,2.9571,2.9583,2.961,2.9628,2.9741,2.9805,2.982,2.9883,2.99,2.991,2.9966,3.0004,3.0119,3.0118,3.0133,3.0137,3.0248,3.0247,3.0246,3.0185,3.0179,3.0173,0,0,0,0,0,0,2.9486,2.9596,2.9627,2.9669,2.9728,2.982,2.9834,2.9874,2.9926,2.993,3.0005,3.0023,3.0064,3.0105,3.0101,3.0164,3.0188,3.019,3.0136,3.013,3.0126,3.0115,3.0156,0,0,0,0,0,2.9473,2.9518,2.9611,2.9639,2.9667,2.9745,2.9776,2.982,2.9882,2.9907,2.9966,3.0023,3.0073,3.0104,3.0154,3.0189,3.021,3.02,3.0195,3.0191,3.0192,3.0217,3.0214,3.0243,3.0243,3.0243,0,0,2.9445,2.9511,2.9533,2.9624,2.9674,2.9719,2.9765,2.9809,2.9843,2.9912,2.9963,3.0008,3.0077,3.012,3.0142,3.0156,3.0189,3.019,3.0185,3.0189,3.0216,3.0213,3.021,3.0243,3.0243,3.0243,0,0,2.9417,2.947,2.9502,2.9553,2.963,2.9683,2.969,2.9778,2.9812,2.9864,2.9919,2.9959,3.0042,3.0091,3.0126,3.0121,3.0159,3.0135,3.0109,3.0133,3.0131,3.0129,3.013,3.0129,3.0136,3.0136,3.0136,0,2.9372,2.9442,2.9512,2.9555,2.9594,2.9663,2.9696,2.9741,2.9829,2.9854,2.9869,2.9978,3.0029,3.0086,3.0086,3.0111,3.0123,3.0126,3.0126,3.0125,3.0124,3.0126,3.0125,3.0133,3.0133,3.0133,3.0134,0,2.9384,2.9432,2.9448,2.9536,2.9577,2.9613,2.9689,2.9722,2.9763,2.9814,2.9868,2.9933,2.9999,3.0016,3.0054,3.0079,3.0086,3.0112,3.0137,3.0117,3.012,3.0121,3.0128,3.0129,3.013,3.0131,0,0,2.9305,2.9435,2.9439,2.9482,2.9574,2.9612,2.9653,2.9721,2.9748,2.9807,2.9844,2.9915,2.9943,2.9983,3.0028,3.0049,3.0044,3.0074,3.0076,3.0067,3.0078,3.0058,3.0057,3.007,3.0071,3.0071,3.0073,0,2.9292,2.9371,2.9437,2.9492,2.9538,2.9607,2.9643,2.9703,2.9752,2.9799,2.9853,2.9903,2.9934,2.9959,2.9982,3.004,3.0048,3.004,3.0105,3.0107,3.0087,3.0059,3.0037,3.0035,3.0074,3.0074,3.0074,0,2.9287,2.9348,2.9407,2.9499,2.9521,2.9552,2.9622,2.9665,2.9736,2.9771,2.9818,2.9867,2.9913,2.9934,3.0001,2.9994,3.0025,3.0058,3.0059,3.0068,3.009,3.0068,3.0036,3.0036,3.0076,3.0076,3.0076,0,2.9226,2.9322,2.9372,2.9405,2.9512,2.9534,2.9579,2.965,2.9688,2.9748,2.9774,2.9837,2.9872,2.992,2.9985,2.9994,3.0046,3.0071,3.0076,3.0075,3.0084,3.0082,3.0058,3.0101,3.0101,3.0101,3.0101,0,2.9205,2.9239,2.9347,2.9377,2.9418,2.9494,2.9533,2.9584,2.9647,2.9689,2.975,2.9788,2.9871,2.9918,2.9969,3.0018,3.0032,3.0062,3.0075,3.0057,3.0053,3.0078,3.0081,3.0101,3.0101,3.0101,3.0101,0,2.9143,2.9216,2.9275,2.9374,2.9399,2.9426,2.9509,2.9542,2.9596,2.9648,2.9665,2.975,2.9809,2.9879,2.996,2.9995,3.0039,3.0058,3.0016,3.0024,3.0026,3.0026,3.0017,3.0021,3.006,3.0059,3.0059,0,2.9126,2.9155,2.9257,2.9291,2.9336,2.9388,2.9429,2.9505,2.9545,2.963,2.9652,2.9717,2.9773,2.9865,2.9933,2.9996,3.0018,3.0011,3.0027,3.001,3.002,3.0018,3.0022,3.0006,3.0005,3.0004,3.0004,0,2.9087,2.9124,2.918,2.9251,2.9299,2.9357,2.9418,2.9441,2.953,2.9571,2.9635,2.9679,2.9764,2.9828,2.9901,2.9947,2.999,2.9999,3.0003,2.9986,2.9961,2.9977,3.0005,2.9998,2.9999,2.9999,2.9999,3.0,2.9049,2.908,2.9158,2.922,2.9275,2.9332,2.9368,2.9429,2.9484,2.9562,2.9603,2.9666,2.9739,2.9842,2.9886,2.9937,2.9951,2.9957,2.9959,2.996,2.9956,2.9953,2.9949,2.995,2.995,2.995,2.995,0,2.9016,2.9071,2.9128,2.9213,2.9263,2.9303,2.9373,2.9411,2.9467,2.9532,2.9588,2.9662,2.9726,2.98,2.9869,2.9895,2.9917,2.991,2.9909,2.992,2.9938,2.9928,2.9892,2.9892,2.9892,2.9892,2.9892,2.9892,2.9005,2.906,2.9105,2.9188,2.9243,2.9307,2.9345,2.9398,2.9451,2.9532,2.9586,2.9636,2.9705,2.978,2.984,2.9861,2.9883,2.9871,2.9897,2.9913,2.9918,2.9923,2.9914,2.9875,2.9875,2.9876,2.9876,2.9876]}]]